Jefferson, NC

9:00 PM EDT on September 24, 2017 (GMT -0400)
Ashe County

Weather History for KGEV - April, 2012

Change the Weather History Date:

Monday, April 9, 2012

  Actual Average Record
Temperature  
Mean Temperature 51 °F -  
Max Temperature 60 °F 59 °F 79 °F (1978)
Min Temperature 42 °F 35 °F 17 °F (1972)
Degree Days  
Heating Degree Days 14    
Growing Degree Days 1 (Base 50)    
Moisture  
Dew Point 21 °F    
Average Humidity 30    
Maximum Humidity 43    
Minimum Humidity 16    
Precipitation  
Precipitation 0.00 in - - ()
Sea Level Pressure  
Sea Level Pressure 30.01 in    
Wind  
Wind Speed 12 mph (WNW)    
Max Wind Speed 29 mph    
Max Gust Speed 51 mph    
Visibility 10 miles    
Events      
Averages and records for this station are not official NWS values.
T = Trace of Precipitation, MM = Missing Value Source: NWS Daily Summary

Daily Weather History Graph

Daily Weather History Graph

Search for Another Location

Airport or City:

Trip Planner

Search our weather history database for the weather conditions in past years. The results will help you decide how hot, cold, wet, or windy it might be!

Date:

Astronomy

Apr. 09, 2012 Rise Set
Actual Time 6:59 AM EDT 7:55 PM EDT
Civil Twilight 6:33 AM EDT 8:21 PM EDT
Nautical Twilight 6:02 AM EDT 8:52 PM EDT
Astronomical Twilight 5:30 AM EDT 9:24 PM EDT
Moon 11:42 PM EDT (4/9) 8:51 AM EDT (4/9)
Length of Visible Light 13h 48m
Length of Day
12h 55m
Waning Gibbous, 88% of the Moon is Illuminated
Apr 9
Waning Gibbous
Apr 13
Last Quarter
Apr 21
New
Apr 29
First Quarter
May 5
Full

Hourly Weather History & Observations

Time (EDT) Temp. Windchill Dew Point Humidity Pressure Visibility Wind Dir Wind Speed Gust Speed Precip Events Conditions
12:15 AM 50.0 °F - 24.8 °F 37% 30.06 in 10.0 mi NW 15.0 mph 20.7 mph N/A   Clear
12:35 AM 50.0 °F - 24.8 °F 37% 30.07 in 10.0 mi NNW 8.1 mph 17.3 mph N/A   Clear
12:55 AM 50.0 °F - 24.8 °F 37% 30.06 in 10.0 mi NNW 12.7 mph 18.4 mph N/A   Clear
1:15 AM 50.0 °F - 24.8 °F 37% 30.07 in 10.0 mi NNW 11.5 mph 23.0 mph N/A   Clear
1:35 AM 48.2 °F - 24.8 °F 40% 30.07 in 10.0 mi NW 11.5 mph 16.1 mph N/A   Clear
1:55 AM 46.4 °F 41.9 °F 24.8 °F 43% 30.07 in 10.0 mi NNW 9.2 mph - N/A   Clear
2:15 AM 46.4 °F 41.9 °F 24.8 °F 43% 30.07 in 10.0 mi NNW 9.2 mph 18.4 mph N/A   Clear
2:35 AM 46.4 °F 41.5 °F 23.0 °F 40% 30.07 in 10.0 mi NNW 10.4 mph 23.0 mph N/A   Clear
2:55 AM 46.4 °F 39.2 °F 23.0 °F 40% 30.06 in 10.0 mi NNW 18.4 mph 25.3 mph N/A   Clear
3:15 AM 46.4 °F 39.2 °F 23.0 °F 40% 30.06 in 10.0 mi NW 18.4 mph 27.6 mph N/A   Clear
3:35 AM 46.4 °F 40.7 °F 23.0 °F 40% 30.07 in 10.0 mi NNW 12.7 mph 17.3 mph N/A   Clear
4:15 AM 44.6 °F 40.7 °F 23.0 °F 43% 30.07 in 10.0 mi NW 6.9 mph - N/A   Clear
4:35 AM 44.6 °F 40.7 °F 23.0 °F 43% 30.07 in 10.0 mi NNW 6.9 mph - N/A   Clear
4:55 AM 44.6 °F 41.4 °F 21.2 °F 39% 30.07 in 10.0 mi NNW 5.8 mph - N/A   Clear
5:15 AM 44.6 °F 40.2 °F 21.2 °F 39% 30.07 in 10.0 mi NNW 8.1 mph - N/A   Clear
5:35 AM 44.6 °F 39.7 °F 21.2 °F 39% 30.07 in 10.0 mi NNW 9.2 mph - N/A   Clear
5:55 AM 44.6 °F 41.4 °F 19.4 °F 37% 30.07 in 10.0 mi NW 5.8 mph - N/A   Clear
6:15 AM 44.6 °F 40.7 °F 19.4 °F 37% 30.07 in 10.0 mi NW 6.9 mph - N/A   Clear
6:35 AM 42.8 °F 41.1 °F 17.6 °F 36% 30.07 in 10.0 mi NW 3.5 mph - N/A   Clear
6:55 AM 42.8 °F - 15.8 °F 34% 30.07 in 10.0 mi Calm Calm - N/A   Clear
7:35 AM 44.6 °F 43.1 °F 15.8 °F 31% 30.08 in 10.0 mi West 3.5 mph - N/A   Clear
7:55 AM 44.6 °F 41.4 °F 17.6 °F 34% 30.07 in 10.0 mi West 5.8 mph - N/A   Clear
8:15 AM 44.6 °F 43.1 °F 15.8 °F 31% 30.08 in 10.0 mi West 3.5 mph - N/A   Clear
8:35 AM 46.4 °F 41.9 °F 15.8 °F 29% 30.07 in 10.0 mi West 9.2 mph - N/A   Clear
8:55 AM 46.4 °F 41.5 °F 15.8 °F 29% 30.07 in 10.0 mi West 10.4 mph - N/A   Clear
9:15 AM 48.2 °F - 15.8 °F 27% 30.06 in 10.0 mi WNW 11.5 mph 17.3 mph N/A   Clear
9:35 AM 50.0 °F - 15.8 °F 26% 30.06 in 10.0 mi NW 4.6 mph 10.4 mph N/A   Clear
9:55 AM 50.0 °F - 17.6 °F 28% 30.06 in 7.0 mi NW 9.2 mph - N/A   Scattered Clouds
10:15 AM 51.8 °F - 15.8 °F 24% 30.06 in 10.0 mi WNW 10.4 mph 17.3 mph N/A   Scattered Clouds
10:35 AM 51.8 °F - 17.6 °F 26% 30.06 in 10.0 mi NW 8.1 mph - N/A   Clear
10:55 AM 53.6 °F - 17.6 °F 24% 30.06 in 10.0 mi WNW 9.2 mph - N/A   Clear
11:15 AM 53.6 °F - 15.8 °F 22% 30.06 in 7.0 mi West 12.7 mph 20.7 mph N/A   Clear
11:35 AM 55.4 °F - 15.8 °F 21% 30.06 in 10.0 mi WNW 13.8 mph 19.6 mph N/A   Clear
11:55 AM 55.4 °F - 15.8 °F 21% 30.05 in 10.0 mi WNW 12.7 mph 20.7 mph N/A   Clear
12:15 PM 55.4 °F - 14.0 °F 20% 30.04 in 10.0 mi West 16.1 mph 25.3 mph N/A   Clear
12:35 PM 57.2 °F - 14.0 °F 18% 30.04 in 10.0 mi West 15.0 mph 23.0 mph N/A   Clear
12:55 PM 59.0 °F - 12.2 °F 16% 30.04 in 10.0 mi West 21.9 mph 26.5 mph N/A   Clear
1:15 PM 59.0 °F - 12.2 °F 16% 30.03 in 10.0 mi NW 16.1 mph 31.1 mph N/A   Clear
1:35 PM 59.0 °F - 14.0 °F 17% 30.02 in 7.0 mi WNW 3.5 mph 20.7 mph N/A   Clear
1:55 PM 59.0 °F - 17.6 °F 20% 30.02 in 10.0 mi SW 6.9 mph 17.3 mph N/A   Clear
2:15 PM 60.8 °F - 17.6 °F 19% 30.01 in 10.0 mi SW 6.9 mph 19.6 mph N/A   Clear
2:35 PM 60.8 °F - 19.4 °F 20% 30.00 in 10.0 mi WSW 10.4 mph 18.4 mph N/A   Clear
2:55 PM 60.8 °F - 19.4 °F 20% 29.99 in 10.0 mi West 15.0 mph 21.9 mph N/A   Clear
3:35 PM 60.8 °F - 17.6 °F 19% 29.97 in 7.0 mi West 13.8 mph 24.2 mph N/A   Clear
3:55 PM 60.8 °F - 19.4 °F 20% 29.96 in 10.0 mi WNW 17.3 mph 26.5 mph N/A   Clear
4:15 PM 60.8 °F - 19.4 °F 20% 29.95 in 10.0 mi West 16.1 mph 23.0 mph N/A   Clear
4:35 PM 60.8 °F - 19.4 °F 20% 29.95 in 10.0 mi West 10.4 mph 16.1 mph N/A   Clear
5:15 PM 60.8 °F - 19.4 °F 20% 29.93 in 7.0 mi WNW 25.3 mph 34.5 mph N/A   Scattered Clouds
5:35 PM 59.0 °F - 21.2 °F 23% 29.93 in 10.0 mi WNW 24.2 mph 38.0 mph N/A   Clear
5:55 PM 60.8 °F - 21.2 °F 22% 29.93 in 10.0 mi West 17.3 mph 34.5 mph N/A   Clear
6:35 PM 59.0 °F - 23.0 °F 25% 29.92 in 10.0 mi West 19.6 mph 27.6 mph N/A   Clear
7:15 PM 57.2 °F - 23.0 °F 27% 29.92 in 10.0 mi West 12.7 mph 32.2 mph N/A   Clear
7:35 PM 57.2 °F - 24.8 °F 29% 29.92 in 10.0 mi West 13.8 mph 20.7 mph N/A   Clear
7:55 PM 55.4 °F - 24.8 °F 31% 29.92 in 10.0 mi West 10.4 mph 21.9 mph N/A   Clear
8:15 PM 55.4 °F - 24.8 °F 31% 29.92 in 10.0 mi West 11.5 mph - N/A   Clear
8:35 PM 55.4 °F - 24.8 °F 31% 29.92 in 10.0 mi WNW 20.7 mph 31.1 mph N/A   Clear
8:55 PM 55.4 °F - 26.6 °F 33% 29.92 in 10.0 mi WNW 18.4 mph 34.5 mph N/A   Clear
9:15 PM 55.4 °F - 26.6 °F 33% 29.92 in 10.0 mi WNW 20.7 mph 35.7 mph N/A   Clear
9:35 PM 55.4 °F - 24.8 °F 31% 29.92 in 10.0 mi WNW 23.0 mph 34.5 mph N/A   Clear
9:55 PM 55.4 °F - 26.6 °F 33% 29.92 in 10.0 mi WNW 24.2 mph 38.0 mph N/A   Clear
10:15 PM 55.4 °F - 26.6 °F 33% 29.92 in 10.0 mi WNW 20.7 mph 29.9 mph N/A   Clear
10:35 PM 53.6 °F - 26.6 °F 35% 29.92 in 10.0 mi WNW 24.2 mph 36.8 mph N/A   Clear
11:15 PM 53.6 °F - 26.6 °F 35% 29.91 in 10.0 mi NW 28.8 mph 50.6 mph N/A   Clear
11:35 PM 53.6 °F - 26.6 °F 35% 29.91 in 10.0 mi NW 26.5 mph 41.4 mph N/A   Clear
11:55 PM 53.6 °F - 23.0 °F 30% 29.91 in 10.0 mi NW 26.5 mph 38.0 mph N/A   Clear